Weather Service Report


883 
ASUS43 KFSD 210510
RWRFSD

WEATHER ROUNDUP FOR SE SOUTH DAKOTA/SW MINNESOTA/NW IOWA
NATIONAL WEATHER SERVICE SIOUX FALLS SD
1200 AM CDT MON APR 21 2014

NOTE: "FAIR" INDICATES FEW OR NO CLOUDS BELOW 12,000 FEET WITH NO
SIGNIFICANT WEATHER AND OR OBSTRUCTIONS TO VISIBILITY.


SDZ038>040-050-052>070-210600-
SOUTHEAST SOUTH DAKOTA
  
CITY           SKY/WX    TMP DP  RH WIND       PRES   REMARKS
CHAMBERLAIN      N/A     62  45  53 N18G28    29.95R                  
HURON          CLOUDY    59  45  59 E8        29.88F                  
MADISON        FAIR      57  46  67 E3        29.89F                  
MITCHELL       CLOUDY    70  43  37 NW17      29.89R                  
SIOUX FALLS    PTCLDY    62  50  64 SW9       29.87F                  
WINNER         FAIR      62  35  36 N23G32    29.97R                  
YANKTON        MOCLDY    64  54  68 SW12      29.89F                  
$$

MNZ071-072-080-081-089-090-097-098-210600-
SOUTHWEST MINNESOTA
  
CITY           SKY/WX    TMP DP  RH WIND       PRES   REMARKS
FAIRMONT       CLOUDY    61  54  77 SE6       29.95R                  
JACKSON        CLOUDY    59  54  82 SE7       29.93S                  
LUVERNE        MOCLDY    59  50  72 CALM      29.89F                  
MARSHALL       PTCLDY    61  52  72 SE12      29.89F                  
MONTEVIDEO     CLOUDY    59  45  58 SE6       29.92S                  
PIPESTONE      PTCLDY    61  50  67 SE3       29.90R                  
REDWOOD FALLS  PTCLDY    59  52  77 SE10      29.91S                  
TRACY          PTCLDY    62  54  76 SE10      29.90F                  
WINDOM         MOCLDY    59  54  82 E6        29.92S                  
WORTHINGTON    CLOUDY    64  48  55 SW13      29.93F                  
$$

IAZ001>003-012>014-020>022-031-032-NEZ013-014-SDZ071-210600-
NORTHWEST IOWA
  
CITY           SKY/WX    TMP DP  RH WIND       PRES   REMARKS
CHEROKEE       CLOUDY    63  55  77 S6        29.93S                  
DENISON        CLOUDY    61  57  88 S10G16    29.94F                  
ESTHERVILLE    CLOUDY    58  56  93 S8        29.92S                  
LE MARS        CLOUDY    63  55  77 S8        29.92S                  
ORANGE CITY    CLOUDY    61  54  77 S8        29.92S                  
SHELDON        CLOUDY    63  54  72 S13       29.90S                  
SIOUX CITY     CLOUDY    66  54  65 S12       29.93R                  
SPENCER        LGT RAIN  62  56  80 S13       29.93S                  
STORM LAKE     CLOUDY    63  55  77 SW5       29.95S                  
$$
 
ABBREVIATIONS USED IN REMARKS
   TC - TEMPERATURE IN CELSIUS
  WCI - WIND CHILL INDEX
   HX - HEAT INDEX
  VSB - VISIBILITY



884 
ASUS43 KFSD 210510
RWRSD 

WEATHER ROUNDUP FOR SOUTH DAKOTA
NATIONAL WEATHER SERVICE SIOUX FALLS SD
1200 AM CDT MON APR 21 2014

NOTE: "FAIR" INDICATES FEW OR NO CLOUDS BELOW 12,000 FEET WITH NO
SIGNIFICANT WEATHER AND/OR OBSTRUCTIONS TO VISIBILITY.


SDZ001>005-009-010-012>017-210600-
NORTHWEST AND NORTH CENTRAL SOUTH DAKOTA
  
CITY           SKY/WX    TMP DP  RH WIND       PRES   REMARKS
BUFFALO          N/A     45  21  38 NW12      30.06S                  
FAITH            N/A     46  26  45 NW9       30.08R                  
MOBRIDGE       CLEAR     50  26  39 N10       30.00R                  
$$
 
SDZ012>016-024>037-041>051-057-063-072>074-210600-
SOUTHWEST AND SOUTH CENTRAL SOUTH DAKOTA
  
CITY           SKY/WX    TMP DP  RH WIND       PRES   REMARKS
RAPID CTY ARPT CLEAR     48  26  42 NW15      30.11R                  
PIERRE         CLEAR     56  30  37 N16       29.99R                  
CUSTER         CLEAR     48  21  34 N10G17    30.16R                  
ELLSWORTH AFB  CLEAR     48  25  40 NW12      30.12R                  
PHILIP         CLEAR     53  27  36 N13       30.06R                  
PINE RIDGE     CLEAR     51  29  42 VRB3      30.09R                  
SPEARFISH      FAIR      45  25  45 SW8       30.17S                  
WINNER         FAIR      62  35  36 N23G32    29.97R                  
$$
 
SDZ004>011-016>023-039-040-210600-
NORTHEAST SOUTH DAKOTA
  
CITY           SKY/WX    TMP DP  RH WIND       PRES   REMARKS
ABERDEEN       PTCLDY    57  32  38 N14       29.98R                  
WATERTOWN      MOCLDY    60  38  43 E7        29.91S                  
SISSETON         N/A     52  38  58 SW8       29.89F                  
$$
 
SDZ017-020-022-023-036>040-048>070-210600-
SOUTHEAST SOUTH DAKOTA
  
CITY           SKY/WX    TMP DP  RH WIND       PRES   REMARKS
SIOUX FALLS    PTCLDY    62  50  64 SW9       29.87F                  
HURON          CLOUDY    59  45  59 E8        29.88F                  
CHAMBERLAIN      N/A     62  45  53 N18G28    29.95R                  
MITCHELL       CLOUDY    70  43  37 NW17      29.89R                  
YANKTON        MOCLDY    64  54  68 SW12      29.89F                  
$$
 
ABBREVIATIONS USED IN REMARKS
   TC - TEMPERATURE IN CELSIUS
  WCI - WIND CHILL INDEX
   HX - HEAT INDEX
  VSB - VISIBILITY


Return to Home page


Western Regional Climate Center, wrcc@dri.edu